Home   Weather   Palermo   Past weeks

Flag for Italy Past Weather in Palermo, Italy — Yesterday and Last 2 Weeks

Now
64 °F

Scattered clouds.


Feels Like: 64 °F
Forecast: 60 / 65 °F
Wind: 12 mph from East

Location: Palermo / Punta Raisi

Current Time: Dec 7, 2016 at 11:53:39 am

Latest Report: Dec 7, 2016 at 11:20 am


Visibility: N/A

Pressure: 30.30 "Hg

Humidity: 64%

Dew Point: 52 °F

Location of PalermoLocation

Past Weather in Palermo — Graph

°F

Palermo Temperature Yesterday

Maximum temperature yesterday: 64 °F (at 12:50 pm)
Minimum temperature yesterday: 57 °F (at 12:20 am)
Average temperature yesterday: 61 °F

High & Low Weather Summary for the Past Weeks

 TemperatureHumidityPressure
High73 °F (Nov 24, 7:20 pm)94% (Nov 25, 7:50 am)30.39 "Hg (Nov 25, 7:50 am)
Low46 °F (Dec 1, 3:20 am)33% (Nov 24, 11:50 pm)29.77 "Hg (Nov 28, 3:50 am)
Average60 °F68%30.09 "Hg
* Reported Nov 22 10:20 am — Dec 7 10:20 am, Palermo, Weather by CustomWeather, © 2016

Note: Actual official high and low records may vary slightly from our data, if they occured in-between our weather recording intervals... More about our weather records

Advertising

Palermo Weather History for the Previous 24 Hours

Scroll right to see more
 ConditionsComfort  
Time TempWeatherWind HumidityBarometerVisibility
10:20 am
Wed, Dec 7
64 °FScattered clouds.9 mph60%30.30 "HgN/A
9:50 am63 °FScattered clouds.12 mph68%30.27 "HgN/A
9:20 am63 °FScattered clouds.5 mph68%30.27 "HgN/A
8:50 am63 °FPassing clouds.5 mph68%30.27 "HgN/A
8:20 am61 °FPassing clouds.2 mph77%30.24 "HgN/A
7:50 am59 °FPassing clouds.5 mph77%30.24 "HgN/A
7:20 am59 °FPartly sunny.2 mph77%30.24 "HgN/A
6:50 am59 °FPassing clouds.3 mph77%30.24 "HgN/A
6:20 am59 °FPassing clouds.3 mph82%30.21 "HgN/A
5:50 am61 °FPassing clouds.5 mph77%30.21 "HgN/A
5:20 am59 °FPassing clouds.5 mph82%30.21 "HgN/A
4:50 am61 °FPassing clouds.2 mph77%30.21 "HgN/A
4:20 am59 °FPassing clouds.2 mph82%30.21 "HgN/A
3:50 am59 °FPassing clouds.5 mph82%30.21 "HgN/A
3:20 am59 °FPassing clouds.5 mph82%30.21 "HgN/A
2:50 am59 °FPassing clouds.2 mph82%30.21 "HgN/A
2:20 am59 °FPassing clouds.3 mph82%30.21 "HgN/A
1:50 am61 °FPassing clouds.5 mph77%30.21 "HgN/A
1:20 am59 °FPassing clouds.6 mph82%30.21 "HgN/A
12:50 am61 °FPassing clouds.3 mph72%30.21 "HgN/A
12:20 am61 °FPassing clouds.3 mph72%30.21 "HgN/A
11:50 pm
Tue, Dec 6
61 °FPassing clouds.7 mph72%30.21 "HgN/A
11:20 pm61 °FPassing clouds.8 mph72%30.21 "HgN/A
10:50 pm63 °FPassing clouds.7 mph68%30.21 "HgN/A
10:20 pm61 °FPassing clouds.3 mph72%30.21 "HgN/A
9:50 pm61 °FPassing clouds.3 mph72%30.21 "HgN/A
9:20 pm61 °FPassing clouds.5 mph77%30.21 "Hg6 mi
8:50 pm61 °FPassing clouds.3 mph77%30.21 "HgN/A
8:20 pm61 °FPassing clouds.3 mph77%30.21 "HgN/A
7:50 pm61 °FPassing clouds.3 mph72%30.21 "HgN/A
6:50 pm63 °FPassing clouds.5 mph73%30.21 "HgN/A
6:20 pm61 °FPassing clouds.7 mph77%30.21 "HgN/A
5:50 pm61 °FPassing clouds.3 mph77%30.21 "HgN/A
5:20 pm63 °FPassing clouds.2 mph77%30.21 "HgN/A
4:50 pm63 °FPassing clouds.No wind73%30.21 "HgN/A
4:20 pm63 °FPartly sunny.2 mph73%30.21 "Hg6 mi
3:50 pm63 °FPartly sunny.3 mph73%30.21 "HgN/A
3:20 pm63 °FPartly sunny.5 mph73%30.21 "HgN/A
2:50 pm63 °FScattered clouds.7 mph73%30.18 "HgN/A
2:20 pm64 °FScattered clouds.5 mph68%30.21 "HgN/A
1:50 pm63 °FScattered clouds.6 mph73%30.21 "HgN/A
1:20 pm64 °FScattered clouds.3 mph68%30.21 "HgN/A
12:50 pm64 °FScattered clouds.5 mph68%30.21 "HgN/A
12:20 pm63 °FScattered clouds.5 mph73%30.24 "HgN/A
11:50 am61 °FLight rain. Scattered clouds.2 mph77%30.24 "HgN/A
11:20 am61 °FLight rain. Scattered clouds.3 mph77%30.24 "HgN/A
Weather by CustomWeather, © 2016

See weather overviewHow to use our weather pages